Location: Lombard
(41.8800°N, 88.0080°W)
Time: 00:00:45
(UTC-05:00)

Tiros 1 - Pass Details

Date: 05 February 2023
Orbit: 628 x 662 km, 48.4° (Epoch: 20 March)

Event Time Altitude Azimuth Distance (km) Brightness Sun altitude
Rises 07:03:39 0° 281° (WNW) 2,945 - -0.3°
Exits shadow 07:03:40 - 281° (WNW) 2,942 9.9 -0.3°
Reaches altitude 10° 07:07:39 10° 248° (WSW) 2,040 9.3 0.4°
Maximum altitude 07:09:04 11° 230° (SW) 1,956 9.4 0.7°
Drops below altitude 10° 07:10:30 10° 212° (SSW) 2,043 9.6 0.9°
Sets 07:14:32 0° 179° (S) 2,957 10.9 1.6°
